Weather Roundup
Issued by NWS Corpus Christi, TX

Home | Current Version | Previous Version | Text Only | Print | Product List | Glossary Off
Versions: 1 2 3 4 5 6 7 8 9 10 11 12 13 14 15 16 17 18 19 20 21 22 23 24 25 26 27 28 29 30 31 32 33 34 35 36 37 38 39 40 41 42 43 44 45 46 47 48 49 50

000
ASUS44 KCRP 241310
HRRCRP

SOUTH TEXAS REGIONAL WEATHER ROUNDUP
NATIONAL WEATHER SERVICE CORPUS CHRISTI TX
800 AM CDT SAT JUN 24 2017


TXZ229>244-241400-
...CORPUS CHRISTI AREA OBSERVATIONS...

CITY           SKY/WX    TMP DP  RH WIND       PRES   REMARKS
CORPUS CHRISTI MOSUNNY   83  79  88 SE7       29.94R HX  94
NAS CORPUS CHR LGT RAIN  86  80  82 SE14      29.94R HX 101
ROCKPORT       MOSUNNY   85  76  74 SE13      29.94R HX  94
KINGSVILLE NAS MOSUNNY   83  81  94 SE5       29.94R HX  97
ALICE          PTSUNNY   81  78  91 E3        29.94R FOG
ORANGE GROVE   SUNNY     81  80  97 SE6       29.96R HX  91
FALFURRIAS     SUNNY     81  78  92 E6        29.93R
$$

...VICTORIA AREA OBSERVATIONS...

CITY           SKY/WX    TMP DP  RH WIND       PRES   REMARKS
VICTORIA       CLOUDY    81  78  91 E5        29.96S FOG
BEEVILLE       FAIR     N/A N/A N/A CALM      29.95F HAZE
PLEASANTON     PTSUNNY   78  76  94 E3        29.98R FOG
SAN ANTONIO    PTSUNNY   79  75  87 SE6       29.99R
$$

...LAREDO AREA OBSERVATIONS...

CITY           SKY/WX    TMP DP  RH WIND       PRES   REMARKS
LAREDO         MOSUNNY   80  75  84 E7        29.94R
COTULLA        SUNNY     80  76  87 SE9       29.95R
DEL RIO        PTSUNNY   75  69  81 N6        29.95R
MCALLEN        MOSUNNY   85  78  80 E14       29.93R HX  96
HEBBRONVILLE   CLOUDY    78  76  92 SE13      29.95S FOG
$$

...OTHER TEXAS OBSERVATIONS...

CITY           SKY/WX    TMP DP  RH WIND       PRES   REMARKS
BROWNSVILLE    PTSUNNY   84  78  82 SE10      29.93R HX  95
HOUSTON        TSTM      78  74  87 N6        29.99R
COL. STATION   LGT RAIN  71  71 100 N10       30.02F
AUSTIN         CLOUDY    80  77  90 NE7       30.01R FOG
WACO             N/A    N/A N/A N/A MISG      30.07R
FORT WORTH     TSTM      72  71  97 N7        30.11R FOG
WICHITA FALLS  LGT RAIN  66  63  90 N13       30.17R
LUBBOCK        CLOUDY    63  57  81 NE15G28   30.22R
EL PASO        MOSUNNY   79  55  43 N7        30.09R
$$

...MARINE OBSERVATIONS...

STATION/POSITION TIME  SKY/WX   TEMP    WIND        PRES    VSBY  WAVE   SWELL
                                AIR SEA DIR/SP/G                  HT/PER HT/PER
                 (UTC)          (F)     (DEG/KT/KT) (MB)    (MI)  (FT/S) (FT/S)
PORT ARANSAS     1200            83 85  140/ 16/ 18 1013.6R
BUOY 90 E PORT A 1150            83 83  130/ 12/ 14 1014.1          5/ 6   3/ 6
BUOY 45 SE BAFFI 1150            84     150/ 14/ 17 1012.5          5/ 7   3/ 8
BUOY 200 E PT IS 1150            83 83  120/  8/ 12 1014.1          5/ 8   5/ 8
BUOY 15 E GALVES 1150            82 83  180/  8/ 10 1015.2          4/ 7   3/ 7
$$




USA.gov is the U.S. government's official web portal to all federal, state and local government web resources and services.